Location: Mount Cross
(36.6390°N, 79.4878°W)
Time: 15:54:22
(UTC+00:00)

Transit 4A - Visible Passes

Search period start: 31 March 2023 00:00
Search period end: 10 April 2023 00:00
Orbit: 868 x 976 km, 66.8° (Epoch: 30 March)

Date Brightness Start Highest point End Pass type
(mag) Time Alt. Az. Time Alt. Az. Time Alt. Az.
31 Mar 10.3 08:27:24 10° SE 08:30:01 13° ESE 08:32:39 10° ENE visible
31 Mar 7.8 10:09:46 10° SSW 10:15:33 76° WNW 10:21:28 10° NNE visible
01 Apr 9.8 08:34:58 11° SSE 08:38:55 22° ESE 08:43:15 10° ENE visible
01 Apr 8.1 10:19:12 10° SW 10:24:48 50° WNW 10:30:32 10° NNE visible
02 Apr 9.1 08:44:42 20° SSE 08:47:53 34° ESE 08:53:06 10° NE visible
02 Apr 8.6 10:28:55 10° WSW 10:34:07 34° NW 10:39:28 10° N visible
03 Apr 8.3 08:54:19 31° S 08:56:54 53° ESE 09:02:37 10° NE visible
04 Apr 7.7 09:03:49 40° SSW 09:06:00 82° ESE 09:11:56 10° NNE visible
05 Apr 10.0 07:29:41 16° ESE 07:29:41 16° ESE 07:32:55 10° ENE visible
05 Apr 7.8 09:13:12 41° SW 09:15:11 66° WNW 09:21:05 10° NNE visible
06 Apr 9.5 07:38:59 25° E 07:38:59 25° E 07:43:09 10° NE visible
06 Apr 8.2 09:22:31 33° W 09:24:28 44° WNW 09:30:06 10° NNE visible
07 Apr 8.9 07:48:14 37° E 07:48:14 37° E 07:52:52 10° NE visible
07 Apr 8.8 09:31:45 24° W 09:33:49 30° NW 09:38:58 10° N visible
08 Apr 8.3 07:57:24 55° ENE 07:57:24 55° ENE 08:02:18 10° NE visible
08 Apr 9.3 09:40:55 17° W 09:43:17 21° NW 09:47:39 10° N visible
09 Apr 8.0 08:06:31 66° NNE 08:06:31 66° NNE 08:11:34 10° NNE visible
09 Apr 9.7 09:50:01 11° WNW 09:52:51 15° NW 09:56:01 10° N visible
